Regional Weather Roundup
Issued by NWS Kansas City/Pleasant Hill, MO

Home | Current Version | Previous Version | Graphics & Text | Print | Product List | Glossary Off
Versions: 1 2 3 4 5 6 7 8 9 10 11 12 13 14 15 16 17 18 19 20 21 22 23 24 25 26 27 28 29 30 31 32 33 34 35 36 37 38 39 40 41 42 43 44 45 46 47 48 49 50

000
ASUS43 KEAX 020911
RWREAX

WEATHER ROUNDUP FOR EASTERN KANSAS AND NORTHWEST MISSOURI
NATIONAL WEATHER SERVICE KANSAS CITY/PLEASANT HILL MO
300 AM CST MON MAR 02 2015

KSZ040-057-103>105-MOZ028-029-037-043-021000-
...KANSAS CITY METROPOLITAN AREA...

CITY           SKY/WX    TMP DP  RH WIND       PRES   REMARKS
K.C. INTL      PTCLDY    22  17  81 CALM      30.49F
K.C. DOWNTOWN  PTCLDY    24  20  84 CALM      30.51S
LEES SUMMIT    MOCLDY    24  19  81 CALM      30.49F
OLATHE - IXD   MOCLDY    19  17  92 CALM      30.49F
OLATHE - OJC   MOCLDY    24  20  84 N5        30.48F WCI  18
LAWRENCE       PTCLDY    17  15  92 CALM      30.50F

$$

MOZ001>008-011>017-020>025-030>033-038>040-044>046-053-054-021000-
...NORTHERN AND CENTRAL MISSOURI...

CITY           SKY/WX    TMP DP  RH WIND       PRES   REMARKS
ST. JOSEPH     PTCLDY    24  22  91 SE3       30.50F
MOSBY          PTSUNNY   19  18  93 CALM      30.51F
WARRENSBURG    PTCLDY    14  12  92 CALM      30.50F
WHITEMAN AFB   CLEAR     12   9  85 CALM      30.48F FOG
CLINTON        MOCLDY    14  12  92 CALM      30.51F FOG
SEDALIA        PTCLDY    16  12  84 SW3       30.50F FOG
WARSAW         NOT AVBL
MARSHALL       PTCLDY    18  18 100 CALM      30.54R FOG
CHILLICOTHE      N/A     21  17  84 CALM      30.53S
MOBERLY        MOCLDY    19  16  86 W3        30.52R FOG
KIRKSVILLE     CLOUDY    19  17  92 W3        30.49F

$$

MOZ041-047>049-056>058-063>065-088>090-097-021000-
...EASTERN AND SOUTHERN MISSOURI...

CITY           SKY/WX    TMP DP  RH WIND       PRES   REMARKS
ST. LOUIS INTL PTCLDY    18  13  80 SW5       30.51F WCI  11
SPIRIT OF STL  PTCLDY     9   6  88 CALM      30.52S
COLUMBIA       MOCLDY    19  17  92 W3        30.50F FOG
JEFFERSON CITY CLOUDY    13  11  92 CALM      30.54S FOG
MEXICO           N/A    N/A N/A N/A W7        30.51S FOG
HANNIBAL       MOCLDY    21  18  86 CALM      30.50F
ROLLA          PTCLDY    16  13  88 N5        30.47S FOG     WCI   9
LEBANON        PTCLDY    19  18  93 N3        30.48S
OSAGE BEACH    PTCLDY    14  10  85 CALM      30.50F
SPRINGFIELD    PTCLDY    20  16  84 NE9       30.46F WCI   9
BRANSON        CLOUDY    27  25  93 CALM      30.45F
NEVADA         CLEAR     19  18  93 CALM      30.52F FOG
JOPLIN         PTCLDY    21  18  88 NE6       30.48F FOG     WCI  13
WEST PLAINS    PTCLDY    25  20  81 NE6       30.46R WCI  18

$$

IAZ060-094-KSZ022-034>040-054-083-096-NEZ052-066-093-021000-
...KANSAS...SOUTHEAST NEBRASKA AND IOWA...

CITY           SKY/WX    TMP DP  RH WIND       PRES   REMARKS
TOPEKA         PTCLDY    21  18  88 CALM      30.50F FOG
MANHATTAN      MOCLDY    21  19  92 CALM      30.49F
EMPORIA        PTCLDY    20  17  88 CALM      30.47F
CHANUTE        PTCLDY    17  15  92 N3        30.50S
WICHITA        MOCLDY    22  18  85 N3        30.46F
OMAHA          CLOUDY    22  16  78 CALM      30.50S
LINCOLN        MOCLDY    25  14  63 CALM      30.48F
FALLS CITY     MOCLDY    26  20  77 CALM      30.48F
LAMONI         MOCLDY    26  17  68 N9        30.48S WCI  17
DES MOINES     CLOUDY    20  13  74 W3        30.50F

$$



USA.gov is the U.S. government's official web portal to all federal, state and local government web resources and services.